LiveATC.Net - Listen to live air traffic control over the Internet!


ICAO: KHFD  IATA: HFD   Airport: Hartford-Brainard Airport
City: Hartford   State/Province: Connecticut
Country: United States   Continent: North America
KHFD METAR Weather: KHFD 150053Z 19012KT 10SM FEW010 OVC022 12/11 A2916 RMK AO2 SLP873 T01220106
KHFD Flight Activity (FlightAware)
KHFD Airport Info   (iFlightPlanner)
KHFD VFR Sectional Chart   (iFlightPlanner) 
KHFD IFR Low Chart   (iFlightPlanner) 

KHFD Ground/Tower
Feed Status: UP   Listeners: 0
Listen in your browser - HTML5 player (in browser, HTML5)
Click here to listen with your own player (launches your MP3 player)
Archive Access: KHFD Ground/Tower
FacilityFrequency
Brainard Ground121.600
Brainard Tower119.600
Sponsored by: Premier Flight Center

NOTICE

Unauthorized use prohibited. See LiveATC.net Terms of Service


Airport/ARTCC Code
Frequency Search
(e.g., 124.400, 128.75)
Site-wide search
 


Browse Feeds
Top 50 Feeds
Coverage Map
Bad Weather Areas

LiveATC FAQ
Offer LiveATC feed
Contact LiveATC.net
Press Inquiries

LiveATC on iPhone
LiveATC on Android

Windows Phone
Windows 8/10

LiveATC Mobile
(Mobile browser)

ATC Audio Archives
Interesting Recordings

LiveATC Forums


Home Page
About LiveATC.net
Make a Donation
Terms of Use
Privacy Policy

Canadian Air Freqs

AIRMETs/SIGMETs

FAA Airport Status
Nat'l Airspace Status
Arrival Demand Charts


Server Software By:
Icecast.org
Liquidsoap